Location: Rodanthe
(35.5920°N, 75.4670°W)
Time: 10:53:00
(UTC-05:00)

Daily predictions for brighter satellites

Satellite Brightness Start Highest point End
(mag) Time Altitude Azimuth Time Altitude Azimuth Time Altitude Azimuth
ATLAS 2A CENTAUR R/B 4.5 17:51:47 10° WSW 17:58:29 56° S 18:27:05 10° E
Cosmos 2082 Rocket 4.4 18:06:59 10° WSW 18:11:39 26° WNW 18:16:23 10° N
Cosmos 1484 Rocket 3.2 18:09:57 10° S 18:13:55 70° W 18:17:53 10° NNW
SL-16 R/B 3.0 18:13:50 10° N 18:18:50 31° ENE 18:23:48 10° ESE
PSLV R/B 3.1 18:17:26 10° WNW 18:20:35 85° SSW 18:23:45 10° ESE
CENTAUR R/B 3.2 18:13:08 10° NNW 18:21:07 73° ENE 18:29:29 10° SE
Cosmos 2360 4.2 18:16:10 10° NNW 18:21:55 75° ENE 18:27:37 10° SSE
ASTRO E2 3.5 18:19:29 10° WSW 18:23:20 45° S 18:27:11 10° ESE
Cosmos 1633 4.2 18:25:06 10° SE 18:27:21 16° E 18:29:37 10° NE
Cosmos 44 Rocket 3.2 18:28:31 10° NNW 18:33:14 65° ENE 18:37:51 10° SE
Cosmos 1975 Rocket 3.1 18:28:58 10° N 18:33:18 84° W 18:37:36 10° S
Cosmos 2322 Rocket 2.4 18:33:00 10° N 18:38:25 46° ENE 18:43:46 10° SE
Okean 1 3.9 18:35:01 10° NNE 18:38:46 35° E 18:42:29 10° SE
Cosmos 1340 4.0 18:39:07 10° NNE 18:41:56 20° ENE 18:43:11 17° E
Nadezhda 1 Rocket 3.9 18:40:03 10° N 18:46:09 84° E 18:52:13 10° S
Cosmos 1818 3.6 18:42:57 10° SSW 18:48:17 59° ESE 18:53:39 10° NE
Meteor 1-25 Rocket 4.3 18:43:30 10° S 18:49:04 80° W 18:54:45 10° N
Tiangong 2 2.5 18:47:11 10° NW 18:49:47 24° N 18:50:56 19° NE
Resurs 01 Rocket 2.2 18:47:01 10° SE 18:51:02 35° ENE 18:55:03 10° N
Cosmos 1536 Rocket 3.9 18:47:49 10° N 18:52:06 44° E 18:56:22 10° SSE
Cosmos 2181 Rocket 4.4 18:48:26 10° N 18:54:17 40° ENE 19:00:09 10° SSE
DNEPR-1 R/B 3.9 18:51:46 10° NNW 18:55:47 41° NE 18:58:09 21° ESE
Helios 1B rocket 3.5 18:56:56 24° E 18:56:56 24° E 19:00:18 10° SSE
Meteor 1-11 Rocket 4.1 18:52:29 10° SSE 18:57:46 40° E 19:03:11 10° NNE
H-2A R/B 3.2 18:58:38 22° ESE 19:00:21 34° ENE 19:03:44 10° N
FENGYUN 3A 3.6 18:55:48 10° SSE 19:01:06 62° ENE 19:06:27 10° N
Cosmos 44 2.9 18:57:41 10° NNW 19:02:06 79° ENE 19:06:18 11° SSE
DELTA 2 R/B (1) 3.9 18:57:18 10° WNW 19:02:49 57° N 19:05:58 25° ENE
Cosmos 1812 3.8 19:09:06 10° NNW 19:12:49 47° W 19:16:31 10° SSW
Cosmos 676 Rocket 3.9 19:08:46 10° SSW 19:13:56 90° WNW 19:19:10 10° NNE
Cosmos 2074 Rocket 4.5 19:08:31 10° SSE 19:14:03 35° E 19:19:39 10° NNE
Cosmos 407 Rocket 4.0 19:09:13 10° SSW 19:14:21 60° WNW 19:19:35 10° N
Cosmos 1709 Rocket 4.0 19:09:24 10° S 19:15:41 90° W 19:21:54 10° N
Cosmos 1023 Rocket 4.4 19:11:32 10° S 19:16:28 55° ESE 19:21:03 12° NNE
CZ-3C R/B 3.4 19:13:43 10° SW 19:17:10 13° SSW 19:19:15 10° S
Resurs 1-3 3.5 19:14:21 10° SSE 19:18:39 62° ENE 19:22:59 10° N
Cosmos 2219 4.2 19:16:40 10° SSE 19:20:13 27° SE 19:20:13 27° SE
Cosmos 1300 Rocket 3.4 19:18:54 10° S 19:23:16 80° E 19:27:42 10° N
ATLAS 2A CENTAUR R/B 3.3 19:24:29 10° SW 19:27:19 26° SSE 19:29:16 22° SE
OAO 3 Copernicus 4.2 19:23:51 10° W 19:28:56 85° S 19:30:12 52° E
Cosmos 2360 Rocket 2.3 19:26:32 10° N 19:32:01 49° ENE 19:32:44 46° E
Cosmos 1602 3.9 19:28:47 10° SSW 19:32:36 69° W 19:36:29 10° N
Cosmos 2219 Rocket 4.4 19:33:19 10° NNE 19:33:19 10° NNE 19:33:19 10° NNE
ALOS 3.3 19:35:57 10° S 19:40:26 47° W 19:44:57 10° NNW
Cosmos 1140 Rocket 3.5 19:40:01 10° SSW 19:45:08 77° WNW 19:49:24 15° NNE
Spot 2 Rocket 4.0 19:43:11 10° S 19:48:08 57° W 19:53:07 10° NNW
Okean 1 Rocket 3.4 19:45:42 10° SSW 19:50:09 67° W 19:54:37 10° N
Gbstr 26 Del rocket 3.9 19:48:23 10° SW 19:50:41 35° SW 19:50:41 35° SW
Cosmos 1850 Rocket 3.9 19:50:01 10° SSW 19:54:48 73° SSE 19:54:48 73° SSE
Cosmos 1461 3.6 19:52:55 10° NW 19:56:31 49° W 19:56:31 49° W
Meteor 1-19 Rocket 4.5 19:52:45 10° NNW 19:58:22 68° W 20:04:04 10° S
Helios 1A 4.2 20:02:04 36° NNW 20:02:04 36° NNW 20:04:39 10° NNW
Cosmos 614 Rocket 4.1 19:57:05 10° SSW 20:02:10 71° WNW 20:02:45 64° NNW
SL-16 R/B 3.8 19:57:53 10° NW 20:02:51 32° WSW 20:07:47 10° SSW
ATLAS CENTAUR R/B 4.2 20:02:56 10° SSW 20:04:45 18° SSW 20:04:45 18° SSW
Resurs 01 Rocket 4.3 20:24:42 10° SW 20:27:35 17° W 20:30:29 10° NW
Cosmos 2322 4.4 20:26:03 10° NNW 20:30:39 50° WNW 20:30:39 50° WNW
COSMOS 2428 4.4 20:36:46 10° NNW 20:39:00 25° NNW 20:39:00 25° NNW
